Location: Unspecified
(0.0000°N, 0.0000°E)
Time: 08:26:20
(UTC+00:00)

ACS3 Solar Sail - Pass Details

Date: 09 November 2025
Orbit: 910 x 992 km, 97.3° (Epoch: 12 November)

Event Time Altitude Azimuth Distance (km) Brightness Sun altitude
Exits shadow 02:43:22 14° 167° (SSE) 2,446 4.1 -42.7°
Drops below altitude 10° 02:44:16 10° 171° (S) 2,754 4.4 -42.5°
Sets 02:46:53 0° 177° (S) 3,707 5.1 -41.9°
